Volver al catálogo

DELTA 1 DEB

ActivoLEO
NORAD 7042·DEBRIS·🇺🇸 United States

Lanzado Nov 6, 1973 desde Vandenberg Space Force Base

Loading…

Próximos Pases (próximas 24 horas)

TLE

ActualizadoSource: Space-Track

Época: Sep 14, 2026, 13:03 UTC

1 07042U 73086AJ  26257.54401020  .00000295  00000-0  42162-3 0  9999
2 07042 101.7144 162.4602 0314364 230.8535 126.4266 13.48446013574288

Sigue DELTA 1 DEB en tiempo real con AllMySat

Download on the App Store